www.pogodaiklimat.ru

Погода и климат >> Архив погоды >> Ирак >> Badrah


ПОГОДА в Badrah

  • Прогноз погоды в Badrah
  • Монитор погоды в Badrah
  • Климат города

АРХИВ ПОГОДЫ в Badrah

Время (UTC), дата Ветер
(напр.,м/с)
 
Видим.   Явления Облачность Т
(С)
Тd
(С)
f
(%)
Тe
(С)
Тes
(С)
Комфортность P
(гПа)
Po
(гПа)
Тmin
(С)
Tmax
(С)
R
(мм)
R24
(мм)
S
(см)
09 11.08 ЮВ 5 5000 м пыль 4/4 900 м
[Cu hum]
+46.6 +8.0 10 +44 +51 опасность
перегрева
997.8 998.0
12 11.08 ЮВ 5 5000 м пыль 4/4 900 м
[Cu hum]
+46.6 +8.0 10 +44 +48 опасность
перегрева
997.8 998.0
15 11.08 ЮВ 2 8000 м пыль 1/1 900 м
[Cu hum]
+45.8 +16.4 19 +48 +48 опасность
перегрева
996.8 997.0
21 11.08 В 2 10 км ясно +36.0 +17.6 34 +39 +39 очень
душно
998.0 998.0
00 12.08 В 1 10 км ясно +33.7 +16.2 35 +36 +36 очень
душно
998.1 998.0
03 12.08 ЮВ 1 7000 м пыль 5/5 900 м
[Cu med, cong]
+35.6 +10.9 22 +35 +35 очень
жарко
998.0 998.0
09 12.08 ЮВ 5 7000 м пыль ясно +47.2 +7.7 10 +45 +56 опасность
перегрева
998.8 999.0
12 12.08 ЮВ 2 7000 м пыль ясно +48.2 +13.0 13 +48 +59 опасность
перегрева
997.8 998.0
00 13.08 В 1 10 км ясно +35.4 +14.3 28 +36 +36 очень
жарко
998.0 998.0
03 13.08 штиль 0 7000 м пыль 3/3 900 м
[Cu med, cong]
+34.0 +10.2 23 +33 +33 жарко 998.1 998.0
06 13.08 В 1 5000 м пыль 3/3 900 м
[Cu med, cong]
+43.4 +7.1 11 +46 +55 опасность
перегрева
999.9 1000.0 +33.2
09 13.08 СЗ 1 6000 м пыль ясно +49.3 +5.1 7 +46 +69 опасность
перегрева
998.7 999.0
12 13.08 СЗ 3 6000 м пыль 1/1 900 м
[Cu hum]
+50.5 +4.4 7 +48 +56 опасность
перегрева
997.7 998.0
15 13.08 СЗ 4 7000 м пыль ясно +47.7 +3.0 7 +44 +45 опасность
перегрева
997.8 998.0
18 13.08 СЗ 2 7000 м пыль ясно +39.4 +5.8 13 +37 +37 очень
жарко
998.9 999.0 +51.4
21 13.08 СЗ 1 7000 м пыль ясно +37.7 +4.4 13 +35 +35 очень
жарко
1000.0 1000.0
00 14.08 С 2 10 км ясно +33.1 +2.9 15 +30 +30 жарко 999.1 999.0
03 14.08 С 3 10 км ясно +32.2 +6.9 21 +31 +31 жарко 1000.1 1000.0
06 14.08 С 1 10 км ясно +39.8 +9.0 16 +38 +51 опасность
солнечного
удара
1000.9 1001.0 +30.5
12 14.08 С 3 7000 м пыль ясно +48.6 +3.5 7 +45 +54 опасность
перегрева
999.7 1000.0
15 14.08 С 3 6000 м пыль ясно +45.6 +7.3 10 +43 +43 опасность
перегрева
999.8 1000.0
18 14.08 С 1 10 км ясно +38.8 +7.6 15 +37 +37 очень
жарко
1001.0 1001.0 +49.6
21 14.08 С 1 10 км ясно +34.0 +7.3 19 +32 +32 жарко 1002.1 1002.0
00 15.08 С 2 10 км ясно +32.6 +7.1 20 +31 +31 жарко 1001.1 1001.0
03 15.08 С 1 10 км ясно +31.4 +8.4 24 +30 +31 жарко 1001.1 1001.0
06 15.08 СВ 1 6000 м пыль ясно +42.4 +11.0 16 +41 +55 опасность
перегрева
1000.9 1001.0 +31.0
09 15.08 СЗ 3 7000 м пыль ясно +45.7 +11.7 14 +45 +61 опасность
перегрева
1000.8 1001.0
12 15.08 СЗ 4 7000 м пыль ясно +46.2 +11.9 14 +46 +53 опасность
перегрева
999.8 1000.0
15 15.08 С 4 10 км ясно +43.7 +7.7 12 +42 +42 опасность
перегрева
999.9 1000.0
18 15.08 С 4 10 км ясно +37.4 +10.5 20 +36 +36 очень
жарко
1001.0 1001.0 +47.8
21 15.08 штиль 0 10 км ясно +33.7 +19.5 43 +39 +39 очень
душно
1000.1 1000.0
00 16.08 В 1 10 км ясно +31.6 +15.8 39 +34 +34 душно 1000.1 1000.0
03 16.08 В 2 7000 м пыль ясно +31.8 +12.9 32 +33 +33 жарко 1001.1 1001.0
06 16.08 В 1 7000 м пыль ясно +40.5 +19.5 30 +45 +58 опасность
перегрева
1003.0 1003.0 +31.2
12 16.08 З 3 7000 м пыль ясно +46.9 +14.6 16 +48 +57 опасность
перегрева
1000.8 1001.0
21 16.08 В 1 7000 м пыль 9/9 900 м
[Cu Sc]
+38.1 +17.0 29 +41 +41 опасность
перегрева
1000.0 1000.0
09 17.08 Ю 2 6000 м пыль 9/9 900 м
[Cu Sc]
+45.4 +13.1 15 +45 +47 опасность
перегрева
1001.8 1002.0
12 17.08 Ю 3 6000 м пыль ясно +48.4 +12.3 13 +48 +57 опасность
перегрева
999.8 1000.0
15 17.08 штиль 0 7000 м пыль 9/9 900 м
[Cu Sc]
+46.2 +12.1 14 +57 +57 опасность
перегрева
998.8 999.0
18 17.08 СВ 1 8000 м пыль 8/8 1050 м
[Sc]
+42.0 +12.2 17 +41 +41 опасность
перегрева
1000.9 1001.0 +48.8
21 17.08 штиль 0 8000 м пыль 8/8 1050 м
[Sc]
+38.0 +12.4 22 +38 +38 очень
жарко
1001.0 1001.0
00 18.08 штиль 0 6000 м пыль 6/6 1050 м
[Sc]
+34.6 +12.3 26 +35 +35 очень
жарко
1001.0 1001.0
03 18.08 штиль 0 5000 м пыль 6/6 1050 м
[Sc]
+33.6 +17.9 39 +37 +38 очень
душно
1001.1 1001.0
06 18.08 штиль 0 5000 м пыль 1/1 900 м
[Cu hum]
+42.4 +17.3 24 +45 +58 опасность
перегрева
1001.9 1002.0 +33.6

 

Местоположение метеостанции Badrah (Ирак): широта 33.10 долгота 45.95 высота над уровнем моря 64 м.

В архиве по умолчанию представлена погода в Badrah за последнюю неделю. Архивные данные за месяц целиком и за предыдущие месяцы, начиная с января 2011 года, Вы можете получить, выбрав интересующий диапазон дат из раскрывающегося списка и нажав кнопку "Ввод!".

Внимание! Время в таблицах - всемирное. Для получения местного времени необходимо прибавить поправку, которая в Badrah равна 3 ч.

Смотрите также архив погоды в соседних городах и на ближайших метеорологических станциях:

Погода в Ubaydah Bin Al Jarrah (Ирак) (70 км)
Погода в Ilam (Иран) (74 км)
Погода в Azizyah (Ирак) (84 км)
Погода в Ali Al-Gharbi (Ирак) (100 км)
Погода в Kut-Al-Hai (Ирак) (104 км)
Погода в Ayn Al-Tamar (Ирак) (125 км)
Погода в Khanaqin (Ирак) (142 км)
Погода в Rifai (Ирак) (154 км)
Погода в Diwaniya (Ирак) (154 км)
Погода в Al-Khalis (Ирак) (155 км)

Пояснения к столбцам:

Ветер - указаны скорость ветра в м/с - средняя за 10 мин, порывы в срок и между сроками (в фигурных скобках) и направление, откуда дует ветер: С - северный, СВ - северо-восточный, В - восточный, ЮВ - юго-восточный, Ю - южный, ЮЗ - юго-западный, З - западный, СЗ - северо-западный.
Видимость - горизонтальная дальность видимости в метрах или километрах. При видимости от 1 до 10 км при отсутствии осадков обычно наблюдается дымка, при ухудшении видимости до 1 км и менее - туман. В сухую погоду видимость может ухудшаться дымом, пылью или мглою.
Явления - указаны атмосферные явления, наблюдавшиеся в срок или в последний час перед сроком; фигурными скобками обозначены явления, наблюдавшиеся между сроками (за 1-3 часа до срока); квадратными скобками обозначены град или гололедные отложения с указанием их диаметра в мм.
Облачность - указаны через наклонную черту общая и нижняя облачность в баллах и высота нижней границы облаков в метрах; квадратными скобками обозначены формы облаков: Ci - перистые, Cs - перисто-слоистые, Cc - перисто-кучевые, Ac - высококучевые, As - высокослоистые, Sc - слоисто-кучевые, Ns - слоисто-дождевые, Cu - кучевые, Cb - кучево-дождевые. Подробнее классификацию облаков см. в Атласе облаков (PDF).
T - Температура воздуха - температура, измеренная на высоте 2 м над землей.
Td - Температура точки росы - температура, при понижении до которой содержащийся в воздухе водяной пар достигнет насыщения.
f - Относительная влажность воздуха - влажноcть воздуха, измеренная на высоте 2 м над землей.
Te - Эффективная температура - температура, которую ощущает одетый по сезону человек в тени. Характеристика душности погоды. При расчете учитывается влияние влажности воздуха и скорости ветра на теплоощущения человека.
Tes - Эффективная температура на солнце - температура, которую ощущает человек, с поправкой на солнечный нагрев. Характеристика знойности погоды. Зависит от высоты солнца над горизонтом, облачности и скорости ветра. Ночью, в пасмурную погоду, а также при ветре 12 м/с и более поправка равна нулю.
P - Атмосферное давление - приведенное к уровню моря атмосферное давление.
Po - Атмосферное давление - измеренное на уровне метеостанции атмосферное давление.
Tmin - Минимальная температура - минимум температуры воздуха на высоте 2 м над землей.
Tmax - Максимальная температура - максимум температуры воздуха на высоте 2 м над землей.
R - Количество осадков - Количество выпавших осадков за период времени, мм. При наведении курсора мыши на число - период времени, за который выпало указанное количество осадков.
R24 - Количество осадков - Количество выпавших осадков за 24 часа, мм.
S - Снежный покров - Высота снежного покрова, см. При наведении курсора мыши на число - состояние снежного покрова и степень покрытия местности в баллах.